This demonstration page uses our WeatherBlox Daily Observations layout. Learn more.

Left ArrowRight Arrow

39.51506, -84.39828

Hourly Observations for April 14, 2017

Temp ( °F °C ) Dew Point ( °F °C ) Humidity (%) Winds ( mph kmh ) Pressure ( in mb ) Visibility ( mi km ) Precip ( " mm )
12:15 am 00:15 Clear 58 14.3 41 4.8 53 53 NNE 6 9 30.27 1025 10 16 0.00 0.00
12:35 am 00:35 Clear 57 13.8 40 4.3 53 53 Calm 30.24 1024 10 16 0.00 0.00
12:55 am 00:55 Clear 55 12.6 42 5.5 62 62 Calm 30.24 1024 10 16 0.00 0.00
1:15 am 01:15 Clear 55 12.5 42 5.6 63 63 Calm 30.24 1024 10 16 0.00 0.00
1:35 am 01:35 Clear 55 12.5 44 6.6 68 68 Calm 30.24 1024 10 16 0.00 0.00
1:55 am 01:55 Clear 50 10 42 5.7 75 75 Calm 30.24 1024 10 16 0.00 0.00
2:15 am 02:15 Clear 49 9.6 42 5.3 75 75 NNW 3 6 30.24 1024 10 16 0.00 0.00
2:35 am 02:35 Clear 49 9.6 42 5.8 77 77 NNW 3 6 30.24 1024 10 16 0.00 0.00
2:55 am 02:55 Clear 49 9.6 42 5.7 77 77 N 5 7 30.24 1024 10 16 0.00 0.00
3:15 am 03:15 Clear 52 11 43 6.2 73 73 Calm 30.24 1024 10 16 0.00 0.00
3:35 am 03:35 Clear 49 9.6 42 5.6 76 76 N 3 6 30.24 1024 10 16 0.00 0.00
3:55 am 03:55 Clear 49 9.6 42 5.5 76 76 N 5 7 30.24 1024 10 16 0.00 0.00
4:15 am 04:15 Clear 51 10.5 42 5.7 72 72 Calm 30.24 1024 10 16 0.00 0.00
4:35 am 04:35 Clear 49 9.6 42 5.6 76 76 Calm 30.24 1024 10 16 0.00 0.00
4:55 am 04:55 Clear 49 9.6 42 5.8 77 77 Calm 30.24 1024 10 16 0.00 0.00
5:15 am 05:15 Clear 49 9.6 43 5.9 78 78 Calm 30.24 1024 10 16 0.00 0.00
5:35 am 05:35 Clear 49 9.6 43 6.1 79 79 Calm 30.24 1024 10 16 0.00 0.00
5:55 am 05:55 Clear 49 9.3 42 5.7 78 78 N 3 6 30.24 1024 10 16 0.00 0.00
6:15 am 06:15 Clear 49 9.6 43 6 78 78 Calm 30.24 1024 10 16 0.00 0.00
6:35 am 06:35 Clear 49 9.6 43 6 78 78 Calm 30.24 1024 10 16 0.00 0.00
6:55 am 06:55 Clear 47 8.2 41 4.8 79 79 Calm 30.24 1024 10 16 0.00 0.00
7:15 am 07:15 Sunny 49 9.5 43 6 79 79 N 5 7 30.27 1025 10 16 0.00 0.00
7:35 am 07:35 Sunny 48 9 42 5.5 79 79 Calm 30.27 1025 10 16 0.00 0.00
7:55 am 07:55 Sunny 49 9.6 43 6.3 80 80 NE 3 6 30.27 1025 10 16 0.00 0.00
8:15 am 08:15 Sunny 49 9.7 43 6.1 78 78 Calm 30.27 1025 10 16 0.00 0.00
8:35 am 08:35 Sunny 55 12.5 45 7.2 70 70 Calm 30.27 1025 10 16 0.00 0.00
8:55 am 08:55 Sunny 56 13.5 44 6.6 63 63 Calm 30.30 1026 10 16 0.00 0.00
9:15 am 09:15 Sunny 57 13.8 43 5.9 59 59 NE 6 9 30.27 1025 10 16 0.00 0.00
9:35 am 09:35 Sunny 58 14.6 42 5.7 55 55 Calm 30.27 1025 10 16 0.00 0.00
9:55 am 09:55 Sunny 60 15.3 42 5.3 52 52 NE 6 9 30.27 1025 10 16 0.00 0.00
10:15 am 10:15 Sunny 62 16.5 42 5.5 48 48 Calm 30.30 1026 10 16 0.00 0.00
10:35 am 10:35 Sunny 62 16.9 41 5.2 46 46 Calm 30.30 1026 10 16 0.00 0.00
10:55 am 10:55 Sunny with Drizzle 66 19.1 41 5 40 40 Calm 30.24 1024 10 16 0.00 0.00
11:15 am 11:15 Sunny 69 20.8 44 6.5 40 40 N 3 6 30.27 1025 10 16 0.00 0.00
11:35 am 11:35 Sunny 69 20.8 42 5.3 36 36 NNE 3 6 30.27 1025 10 16 0.00 0.00
11:55 am 11:55 Sunny 69 20.8 40 4.5 34 34 Calm 30.24 1024 10 16 0.00 0.00
12:15 pm 12:15 Partly Cloudy 72 22.2 40 4.7 32 32 N 3 6 30.24 1024 10 16 0.00 0.00
12:35 pm 12:35 Mostly Cloudy 74 23.6 38 3.6 27 27 SE 3 6 30.24 1024 10 16 0.00 0.00
12:55 pm 12:55 Cloudy 74 23.6 37 2.9 26 26 Calm 30.21 1023 10 16 0.00 0.00
1:15 pm 13:15 Partly Cloudy 76 24.2 37 2.8 25 25 Calm 30.21 1023 10 16 0.00 0.00
1:35 pm 13:35 Sunny 77 25.1 37 2.6 23 23 SW 3 6 30.21 1023 10 16 0.00 0.00
1:55 pm 13:55 Sunny 77 25.1 39 3.9 25 25 S 3 6 30.21 1023 10 16 0.00 0.00
2:15 pm 14:15 Sunny 77 25.1 39 3.7 25 25 Calm 30.21 1023 10 16 0.00 0.00
2:35 pm 14:35 Sunny 78 25.3 40 4.7 27 27 Calm 30.21 1023 10 16 0.00 0.00
2:55 pm 14:55 Sunny 80 26.5 42 5.7 26 26 WSW 3 6 30.18 1022 10 16 0.00 0.00
3:15 pm 15:15 Sunny 80 26.5 43 5.9 27 27 WSW 7 11 30.18 1022 10 16 0.00 0.00
3:35 pm 15:35 Sunny 80 26.5 43 5.9 27 27 WSW 7 11 30.18 1022 10 16 0.00 0.00
3:55 pm 15:55 Sunny 80 26.4 43 6.1 27 27 WSW 5 7 30.18 1022 10 16 0.00 0.00
4:15 pm 16:15 Sunny 80 26.5 44 6.7 28 28 SW 6 9 30.18 1022 10 16 0.00 0.00
4:35 pm 16:35 Sunny 80 26.5 42 5.4 26 26 S 5 7 30.18 1022 10 16 0.00 0.00
4:55 pm 16:55 Sunny 80 26.5 42 5.5 26 26 SSW 5 7 30.18 1022 10 16 0.00 0.00
5:15 pm 17:15 Sunny 80 26.5 43 6.2 27 27 SW 6 9 30.15 1021 10 16 0.00 0.00
5:35 pm 17:35 Sunny 80 26.5 41 4.9 25 25 SW 3 6 30.15 1021 10 16 0.00 0.00
5:55 pm 17:55 Sunny 79 26.3 44 6.4 28 28 SW 3 6 30.15 1021 10 16 0.00 0.00
6:15 pm 18:15 Sunny 79 25.9 45 7.1 30 30 Calm 30.15 1021 10 16 0.00 0.00
6:35 pm 18:35 Sunny 80 26.5 40 4.7 25 25 Calm 30.15 1021 10 16 0.00 0.00
6:55 pm 18:55 Sunny 77 25.1 46 8 34 34 Calm 30.15 1021 10 16 0.00 0.00
7:15 pm 19:15 Sunny 74 23.6 51 10.3 43 43 NE 3 6 30.15 1021 10 16 0.00 0.00
7:35 pm 19:35 Sunny 74 23.6 49 9.2 40 40 Calm 30.15 1021 10 16 0.00 0.00
7:55 pm 19:55 Sunny 74 23.6 53 11.9 48 48 Calm 30.15 1021 10 16 0.00 0.00
8:15 pm 20:15 Clear 69 20.8 56 13.3 62 62 Calm 30.15 1021 10 16 0.00 0.00
8:35 pm 20:35 Clear 69 20.8 58 14.2 66 66 Calm 30.15 1021 10 16 0.00 0.00
8:55 pm 20:55 Clear 65 18.5 54 12.4 68 68 Calm 30.15 1021 10 16 0.00 0.00
9:15 pm 21:15 Clear 63 17.2 54 12.2 73 73 Calm 30.15 1021 10 16 0.00 0.00
9:35 pm 21:35 Clear 64 17.8 55 12.7 72 72 Calm 30.15 1021 10 16 0.00 0.00
9:55 pm 21:55 Clear 61 16.3 53 11.9 75 75 NW 3 6 30.18 1022 10 16 0.00 0.00
10:15 pm 22:15 Clear 61 16.1 52 11.3 73 73 Calm 30.18 1022 10 16 0.00 0.00
10:35 pm 22:35 Clear 61 16.1 52 11 72 72 N 3 6 30.18 1022 10 16 0.00 0.00
10:55 pm 22:55 Clear 61 16 52 11 72 72 Calm 30.18 1022 10 16 0.00 0.00
11:15 pm 23:15 Clear 62 16.7 51 10.5 67 67 Calm 30.21 1023 10 16 0.00 0.00
11:35 pm 23:35 Clear 61 16.1 51 10.7 71 71 Calm 30.18 1022 10 16 0.00 0.00
11:55 pm 23:55 Clear 61 16 52 11.2 73 73 Calm 30.18 1022 10 16 0.00 0.00

Powered by AerisWeather